Location: Nora Junction
(43.1400°N, 93.0163°W)
Time: 23:50:37
(UTC+00:00)

Helios 1A Rocket - Pass Details

Date: 18 November 2025
Orbit: 438 x 450 km, 98.3° (Epoch: 14 December)

Event Time Altitude Azimuth Distance (km) Brightness Sun altitude
Exits shadow 23:35:58 13° 81° (E) 1,396 4.2 -9.4°
Maximum altitude 23:36:35 14° 94° (E) 1,368 4.3 -9.5°
Drops below altitude 10° 23:38:20 10° 125° (SE) 1,568 4.8 -9.8°
Sets 23:41:12 0° 153° (SSE) 2,438 6.0 -10.3°
